{"data":{"norad_id":62204,"intl_designator":"2024-229N","name":"STARLINK-32664","alt_names":[],"object_type":"PAYLOAD","status":"ACTIVE","operator":null,"country":"US","launch_date":"2024-12-04","launch_site_code":"AFETR","launch_vehicle":null,"mission":null,"orbit_class":"UNKNOWN","rcs_meters":null,"size_class":null,"mass_kg":null,"dimensions":null,"purposes":["comms"],"wikipedia_slug":null,"has_3d_model":false,"image_url":null,"decayed_at":null,"tle_current":{"epoch":"2026-09-21T22:00:03.000096Z","epoch_age_seconds":55311,"freshness":"FRESH","line1":"1 62204U 24229N   26264.91670139  .00005803  00000+0  31121-4 0  9996","line2":"2 62204  42.9838 190.0559 0028659 186.0906  43.8537 15.80750238  6004","mean_motion":15.80750238,"eccentricity":0.0028659,"inclination_deg":42.9838,"raan_deg":190.0559,"arg_perigee_deg":186.0906,"mean_anomaly_deg":43.8537,"bstar":3.1121e-5,"rev_number":600,"period_min":91.095985019235,"perigee_km":309.09780487687,"apogee_km":347.53786269316,"semimajor_km":6706.454833785,"source":"CELESTRAK","updated_at":"2026-09-22T09:00:49.541323Z"}}}